Morrisville, VT

11:27 AM EST on December 14, 2017 (GMT -0500)
Morrisville Stowe State

Weather History for KMVL - September, 2013

Change the Weather History Date:

Monday, September 16, 2013

  Actual Average Record
Temperature  
Mean Temperature 45 °F 58 °F  
Max Temperature 55 °F 70 °F 85 °F (2015)
Min Temperature 34 °F 46 °F 34 °F (2013)
Degree Days  
Heating Degree Days 20 8  
Month to date heating degree days 110 89  
Since 1 July heating degree days 179 184  
Cooling Degree Days 0 0  
Month to date cooling degree days 38 13  
Year to date cooling degree days 401 260  
Moisture  
Dew Point 42 °F    
Average Humidity 72    
Maximum Humidity 93    
Minimum Humidity 50    
Precipitation  
Precipitation 0.07 in 0.12 in 1.64 in (1999)
Month to date precipitation 2.19 1.65  
Year to date precipitation 32.45 25.41  
Sea Level Pressure  
Sea Level Pressure 30.16 in    
Wind  
Wind Speed 5 mph (NNW)    
Max Wind Speed 17 mph    
Max Gust Speed 26 mph    
Visibility 10 miles    
Events Rain    
T = Trace of Precipitation, MM = Missing Value Source: NWS Daily Summary

Daily Weather History Graph

Daily Weather History Graph

Search for Another Location

Airport or City:

Trip Planner

Search our weather history database for the weather conditions in past years. The results will help you decide how hot, cold, wet, or windy it might be!

Date:

Astronomy

Sep. 16, 2013 Rise Set
Actual Time 6:30 AM EDT 6:58 PM EDT
Civil Twilight 6:01 AM EDT 7:27 PM EDT
Nautical Twilight 5:26 AM EDT 8:02 PM EDT
Astronomical Twilight 4:51 AM EDT 8:37 PM EDT
Moon 5:10 PM EDT (9/16) 3:07 AM EDT (9/16)
Length of Visible Light 13h 26m
Length of Day
12h 28m
Waxing Gibbous, 90% of the Moon is Illuminated
Sep 16
Waxing Gibbous
Sep 19
Full
Sep 26
Last Quarter
Oct 4
New
Oct 11
First Quarter

Hourly Weather History & Observations

Time (EDT) Temp. Windchill Dew Point Humidity Pressure Visibility Wind Dir Wind Speed Gust Speed Precip Events Conditions
12:54 AM 55.0 °F - 52.0 °F 89% 30.04 in 10.0 mi Calm Calm - 0.01 in Rain Light Rain
1:54 AM 54.0 °F - 52.0 °F 93% 30.04 in 10.0 mi Calm Calm - 0.01 in Rain Light Rain
2:54 AM 54.0 °F - 52.0 °F 93% 30.04 in 10.0 mi South 3.5 mph - 0.03 in Rain Light Rain
3:54 AM 53.1 °F - 51.1 °F 93% 30.04 in 10.0 mi South 3.5 mph - 0.02 in Rain Light Rain
4:54 AM 53.1 °F - 51.1 °F 93% 30.03 in 10.0 mi Calm Calm - 0.00 in Rain Light Rain
5:54 AM 53.1 °F - 50.0 °F 89% 30.04 in 10.0 mi South 5.8 mph - 0.01 in   Overcast
6:54 AM 53.1 °F - 48.9 °F 86% 30.05 in 10.0 mi Calm Calm - N/A   Overcast
7:54 AM 54.0 °F - 48.9 °F 83% 30.06 in 10.0 mi Calm Calm - N/A   Overcast
8:22 AM 53.6 °F - 50.0 °F 88% 30.06 in 10.0 mi NNW 8.1 mph - 0.00 in Rain Light Rain
8:54 AM 50.0 °F - 46.9 °F 89% 30.09 in 10.0 mi North 8.1 mph - 0.00 in   Overcast
9:54 AM 46.9 °F - 43.0 °F 86% 30.12 in 10.0 mi NNW 16.1 mph 21.9 mph N/A   Overcast
10:02 AM 46.4 °F 40.4 °F 42.8 °F 87% 30.12 in 10.0 mi NNW 13.8 mph 21.9 mph N/A   Overcast
10:36 AM 46.4 °F 40.7 °F 42.8 °F 87% 30.13 in 10.0 mi NNW 12.7 mph 23.0 mph N/A   Overcast
10:44 AM 48.2 °F - 42.8 °F 82% 30.14 in 10.0 mi NNW 11.5 mph 23.0 mph N/A   Overcast
10:54 AM 48.0 °F - 43.0 °F 83% 30.16 in 10.0 mi NNW 15.0 mph 20.7 mph N/A   Overcast
11:29 AM 46.4 °F 41.1 °F 41.0 °F 81% 30.16 in 10.0 mi NNW 11.5 mph 23.0 mph N/A   Overcast
11:40 AM 48.2 °F - 42.8 °F 82% 30.16 in 10.0 mi North 10.4 mph 19.6 mph N/A   Overcast
11:54 AM 50.0 °F - 41.0 °F 71% 30.17 in 10.0 mi North 11.5 mph 19.6 mph N/A   Overcast
12:54 PM 48.9 °F - 39.9 °F 71% 30.19 in 10.0 mi North 4.6 mph - N/A   Overcast
1:16 PM 50.0 °F - 39.2 °F 66% 30.18 in 10.0 mi NNW 6.9 mph 17.3 mph N/A   Overcast
1:38 PM 48.2 °F - 39.2 °F 71% 30.18 in 10.0 mi North 10.4 mph 17.3 mph N/A   Overcast
1:54 PM 48.9 °F - 37.9 °F 66% 30.21 in 10.0 mi NNW 9.2 mph 17.3 mph N/A   Overcast
2:09 PM 48.2 °F - 39.2 °F 71% 30.19 in 10.0 mi NW 8.1 mph 17.3 mph N/A   Mostly Cloudy
2:54 PM 48.9 °F - 35.1 °F 59% 30.20 in 10.0 mi NNW 8.1 mph - N/A   Mostly Cloudy
3:54 PM 53.1 °F - 35.1 °F 50% 30.21 in 10.0 mi NW 9.2 mph 17.3 mph N/A   Scattered Clouds
4:54 PM 51.1 °F - 34.0 °F 52% 30.22 in 10.0 mi NNW 8.1 mph 17.3 mph N/A   Partly Cloudy
5:54 PM 48.0 °F - 33.1 °F 56% 30.25 in 10.0 mi NW 9.2 mph - N/A   Clear
6:54 PM 45.0 °F - 35.1 °F 68% 30.27 in 10.0 mi Calm Calm - N/A   Clear
7:54 PM 41.0 °F - 36.0 °F 82% 30.30 in 10.0 mi Calm Calm - N/A   Clear
8:54 PM 37.9 °F - 35.1 °F 89% 30.32 in 10.0 mi Calm Calm - N/A   Clear
9:54 PM 37.0 °F - 34.0 °F 89% 30.34 in 10.0 mi Calm Calm - N/A   Clear
10:54 PM 36.0 °F - 33.1 °F 89% 30.36 in 10.0 mi Calm Calm - N/A   Clear
11:54 PM 36.0 °F - 34.0 °F 93% 30.37 in 10.0 mi Calm Calm - N/A   Overcast